This is the latest recevied weather packets stored in our database for station/object TVARMINN. If no packets are shown the sender has not sent any weather packets the latest 10 day(s).
| Time | Temp. | Humidity | Pressure | Rain* | Wind** | Luminosity | Snow |
|---|---|---|---|---|---|---|---|
| 1777528016 | 5.56° C | 88% | 1022.9 hPa | 0 mm | - | - | - |
| 1777526816 | 5.56° C | 90% | 1022.9 hPa | 0 mm | - | - | - |
| 1777525615 | 5.56° C | 90% | 1022.8 hPa | 0 mm | - | - | - |
| 1777524416 | 5° C | 91% | 1023 hPa | 0 mm | - | - | - |
| 1777523215 | 5° C | 92% | 1023 hPa | 0 mm | - | - | - |
| 1777522016 | 5° C | 94% | 1022.8 hPa | 0 mm | - | - | - |
| 1777520816 | 5° C | 95% | 1022.7 hPa | 0 mm | - | - | - |
| 1777519615 | 4.44° C | 94% | 1023 hPa | 0 mm | - | - | - |
| 1777518416 | 4.44° C | 93% | 1023.3 hPa | 0 mm | - | - | - |
| 1777517215 | 4.44° C | 92% | 1023.2 hPa | 0 mm | - | - | - |
| 1777516015 | 4.44° C | 88% | 1023.3 hPa | 0 mm | - | - | - |
| 1777514815 | 4.44° C | 84% | 1023.4 hPa | 0 mm | - | - | - |
| 1777513616 | 4.44° C | 82% | 1023.6 hPa | 0 mm | - | - | - |
| 1777512415 | 4.44° C | 79% | 1023.7 hPa | 0 mm | - | - | - |
| 1777511215 | 4.44° C | 77% | 1023.8 hPa | 0 mm | - | - | - |
| 1777510015 | 4.44° C | 76% | 1024 hPa | 0 mm | - | - | - |
| 1777508814 | 4.44° C | 74% | 1024.2 hPa | 0 mm | - | - | - |
| 1777507615 | 4.44° C | 75% | 1024.2 hPa | 0 mm | - | - | - |
| 1777506415 | 4.44° C | 75% | 1024.1 hPa | 0 mm | - | - | - |
| 1777505215 | 4.44° C | 75% | 1024.3 hPa | 0 mm | - | - | - |
| 1777504014 | 4.44° C | 76% | 1024.5 hPa | 0 mm | - | - | - |
| 1777502815 | 4.44° C | 77% | 1024.6 hPa | 0 mm | - | - | - |
| 1777501615 | 4.44° C | 78% | 1024.6 hPa | 0 mm | - | - | - |
| 1777500415 | 4.44° C | 77% | 1024.6 hPa | 0 mm | - | - | - |
| 1777499214 | 4.44° C | 76% | 1024.7 hPa | 0 mm | - | - | - |
* Rain latest hour (hover to see other rain measurements)
** Current wind speed in m/s (hover to see current wind gust speed)